Home > Weather > U.S.A. > Waterbury > Past weeks

Flag for U.S.A. Weather past 2 weeks in Waterbury, Connecticut, U.S.A.

39 °F

Drizzle. Fog.

Feels Like: 35 °F
Forecast: 32 / 44 °F
Wind: 6 mph from East

Location: Oxford

Current Time: Dec 1, 2015 at 3:09:55 PM

Latest Report: Dec 1, 2015 at 1:50 PM

Visibility: 6 mi

Pressure: 30.19 "Hg

Humidity: 70%

Dew point: 30 °F

Location of WaterburyLocation

Historic Weather in Waterbury — Graph


Waterbury temperature yesterday

Maximum temperature yesterday: 37 °F (at 2:50 PM)
Minimum temperature yesterday: 28 °F (at 2:15 AM)
Average temperature yesterday: 32 °F

Past Weeks' High & Low Weather Summary

High63 °F (Nov 19, 10:55 PM)77% (Nov 19, 5:35 AM)30.82 "Hg (Nov 19, 5:35 AM)
Low19 °F (Nov 24, 4:55 AM)28% (Nov 23, 2:50 PM)29.86 "Hg (Nov 22, 11:55 PM)
Average41 °F57%30.32 "Hg
* Reported Nov 16 1:50 PM — Dec 1 1:50 PM, Waterbury, Weather by CustomWeather, © 2015

Note: Actual official high and low records may vary slightly from our data, if they occured in-between our weather recording intervals... More about our weather records


Waterbury weather history for previous 24 hours

Time TempWeatherWind HumidityBarometerVisibility
1:50 PM
Tue, Dec 1
39 °FDrizzle. Fog.6 mph70%30.19 "Hg6 mi
12:50 PM39 °FLight rain. Fog.5 mph70%30.22 "Hg3 mi
11:50 AM39 °FMore clouds than sun.9 mph70%30.23 "Hg7 mi
10:50 AM41 °FCloudy.9 mph66%30.27 "Hg10 mi
9:50 AM39 °FMostly cloudy.7 mph65%30.28 "Hg8 mi
8:45 AM37 °FMore clouds than sun.7 mph65%30.27 "Hg8 mi
7:50 AM36 °FDrizzle. Mostly cloudy.7 mph65%30.29 "Hg8 mi
6:55 AM36 °FMostly cloudy.7 mph60%30.30 "Hg8 mi
5:55 AM34 °FMostly cloudy.7 mph60%30.30 "Hg10 mi
5:35 AM34 °FMostly cloudy.8 mph60%30.30 "Hg10 mi
4:55 AM34 °FMostly cloudy.8 mph60%30.31 "Hg10 mi
4:35 AM34 °FMostly cloudy.6 mph60%30.31 "Hg10 mi
4:15 AM34 °FMostly cloudy.6 mph60%30.31 "Hg10 mi
3:55 AM34 °FMostly cloudy.7 mph60%30.31 "Hg10 mi
2:55 AM36 °FMostly cloudy.7 mph56%30.32 "Hg10 mi
2:35 AM36 °FOvercast.6 mph56%30.33 "Hg10 mi
1:55 AM36 °FMostly cloudy.6 mph56%30.33 "Hg10 mi
1:35 AM36 °FOvercast.6 mph56%30.33 "Hg10 mi
1:15 AM36 °FOvercast.3 mph56%30.33 "Hg10 mi
12:55 AM36 °FOvercast.6 mph56%30.34 "Hg10 mi
12:35 AM36 °FOvercast.6 mph56%30.34 "Hg10 mi
11:55 PM
Mon, Nov 30
36 °FOvercast.6 mph56%30.35 "Hg10 mi
11:15 PM34 °FOvercast.7 mph56%30.35 "Hg10 mi
10:55 PM34 °FOvercast.6 mph56%30.36 "Hg10 mi
10:35 PM34 °FOvercast.7 mph56%30.36 "Hg10 mi
9:55 PM34 °FPassing clouds.5 mph56%30.37 "Hg10 mi
9:35 PM34 °FClear.5 mph56%30.37 "Hg10 mi
9:15 PM34 °FClear.3 mph56%30.38 "Hg10 mi
8:50 PM32 °FPassing clouds.No wind60%30.38 "Hg10 mi
7:50 PM34 °FPassing clouds.6 mph56%30.38 "Hg10 mi
6:50 PM34 °FPassing clouds.5 mph56%30.39 "Hg10 mi
5:50 PM34 °FPassing clouds.5 mph51%30.37 "Hg10 mi
4:50 PM36 °FOvercast.No wind52%30.40 "Hg10 mi
3:50 PM37 °FOvercast.No wind48%30.41 "Hg10 mi
Weather by CustomWeather, © 2015

See weather overviewHow to use our weather pages